Location: Ford County Road and Bridge Department
(37.7686°N, 99.9762°W)
Time: 15:05:57
(UTC+00:00)

CZ-2D R/B - Pass Details

Date: 18 January 2020
Orbit: 522 x 538 km, 97.4° (Epoch: 27 February)

Event Time Altitude Azimuth Distance (km) Brightness Sun altitude
Rises 00:44:45 0° 141° (SE) 2,642 6.6 -11.5°
Reaches altitude 10° 00:47:04 10° 128° (SE) 1,761 5.6 -11.9°
Maximum altitude 00:50:15 26° 71° (ENE) 1,063 4.2 -12.5°
Drops below altitude 10° 00:53:28 10° 14° (NNE) 1,779 5.6 -13.1°
Sets 00:55:49 0° 2° (N) 2,676 6.6 -13.6°
